Regional Weather Roundup
Issued by NWS Bismarck, ND

Home | Current Version | Previous Version | Text Only | Print | Product List | Glossary On
Versions: 1 2 3 4 5 6 7 8 9 10 11 12 13 14 15 16 17 18 19 20 21 22 23 24 25 26 27 28 29 30 31 32 33 34 35 36 37 38 39 40 41 42 43 44 45 46 47 48 49 50
000
ASUS43 KBIS 281459
RWRBIS

NWR BROADCAST TEXT
NATIONAL WEATHER SERVICE BISMARCK ND
1000 AM CDT MON JUL 28 2014

NOTE: "FAIR" INDICATES FEW OR NO CLOUDS BELOW 12,000 FEET WITH NO
SIGNIFICANT WEATHER AND/OR OBSTRUCTIONS TO VISIBILITY.


CITY           SKY/WX    TMP DP  RH WIND       PRES   REMARKS
WILLISTON      SUNNY     66  53  63 VRB3      30.32F
MINOT          PTSUNNY   67  54  63 N3        30.33S
MINOT AFB      NOT AVBL
BISMARCK       SUNNY     64  52  64 CALM      30.34F
DICKINSON      NOT AVBL
GARRISON         N/A     64  55  72 NW3       30.34S
HETTINGER ARPT SUNNY     65  52  62 SE6       30.36S
JAMESTOWN      NOT AVBL
CARRINGTON     FAIR      63  59  88 NW6       30.34S
CROSBY           N/A    N/A N/A N/A S3        30.33S
HARVEY         FAIR      63  57  82 W6        30.34S
HAZEN          FAIR      61  52  72 CALM      30.35S
LINTON         FAIR      63  54  72 CALM      30.35S
MANDAN         FAIR      63  54  72 CALM      30.35F
RUGBY          FAIR      63  59  88 NW6       30.33S
TIOGA          FAIR      64  63  94 W3        30.37S
WATFORD CITY   FAIR      66  55  68 CALM      30.31S
$$

CITY           SKY/WX    TMP DP  RH WIND       PRES   REMARKS
GRAND FORKS    PTSUNNY   65  56  72 NW8       30.28R
GRAND FORKS AF NOT AVBL
DEVILS LAKE    SUNNY     63  54  72 NW7       30.31S
FARGO          CLOUDY    65  56  72 NW9       30.28S
CAVALIER       FAIR      64  55  72 NW6       30.29S
GWINNER        CLOUDY    66  55  68 N7        30.31F
LANGDON        FAIR      64  55  72 N9        30.31S
$$

CITY           SKY/WX    TMP DP  RH WIND       PRES   REMARKS
ABERDEEN       MOSUNNY   65  56  72 NE9       30.32S
MOBRIDGE       SUNNY     63  56  78 VRB3      30.33S
BUFFALO          N/A     66  55  67 SE8       30.28F
RAPID CITY     SUNNY     66  57  72 SE10      30.35S
GLASGOW        SUNNY     68  53  58 E8        30.28S
SIDNEY         SUNNY     64  55  72 S5        30.33S
WOLF POINT     SUNNY     67  53  61 E5        30.30S
GLENDIVE       SUNNY     66  54  63 S3        30.32F
MILES CITY     SUNNY     70  54  56 E5        30.29F
BAKER          SUNNY     67  53  61 E8        30.34S
$$

CITY           SKY/WX    TMP DP  RH WIND       PRES   REMARKS
BILLINGS       MOSUNNY   67  46  47 CALM      30.29S
GREAT FALLS    MOSUNNY   68  42  38 VRB3      30.26R
$$




USA.gov is the U.S. government's official web portal to all federal, state and local government web resources and services.